Year,Month,Day,Hour,Minute,Value (Times are PST for temperature in C)
2014,07,01,00,00,18.90
2014,07,01,00,01,18.90
2014,07,01,00,02,18.90
2014,07,01,00,03,18.90
2014,07,01,00,04,18.90
2014,07,01,00,05,18.90
2014,07,01,00,06,18.90
2014,07,01,00,07,18.90
2014,07,01,00,08,18.90
2014,07,01,00,09,18.80
2014,07,01,00,10,18.80
2014,07,01,00,11,18.80
2014,07,01,00,12,18.80
2014,07,01,00,13,18.80
2014,07,01,00,14,18.80
2014,07,01,00,15,18.80
2014,07,01,00,16,18.80
2014,07,01,00,17,18.80
2014,07,01,00,18,18.80
2014,07,01,00,19,18.80
2014,07,01,00,20,18.80
2014,07,01,00,21,18.80
2014,07,01,00,22,18.80
2014,07,01,00,23,18.80
2014,07,01,00,24,18.80
2014,07,01,00,25,18.80
2014,07,01,00,26,18.80
2014,07,01,00,27,18.70
2014,07,01,00,28,18.70
2014,07,01,00,29,18.70
2014,07,01,00,30,18.70
2014,07,01,00,31,18.70
2014,07,01,00,32,18.70
2014,07,01,00,33,18.70
2014,07,01,00,34,18.70
2014,07,01,00,35,18.60
2014,07,01,00,36,18.60
2014,07,01,00,37,18.60
2014,07,01,00,38,18.60
2014,07,01,00,39,18.50
2014,07,01,00,40,18.50
2014,07,01,00,41,18.50
2014,07,01,00,42,18.40
2014,07,01,00,43,18.40
2014,07,01,00,44,18.40
2014,07,01,00,45,18.40
2014,07,01,00,46,18.40
2014,07,01,00,47,18.40
2014,07,01,00,48,18.40
2014,07,01,00,49,18.40
2014,07,01,00,50,18.40
2014,07,01,00,51,18.40
2014,07,01,00,52,18.40
2014,07,01,00,53,18.30
2014,07,01,00,54,18.30
2014,07,01,00,55,18.30
2014,07,01,00,56,18.30
2014,07,01,00,57,18.30
2014,07,01,00,58,18.30
2014,07,01,00,59,18.30
2014,07,01,01,00,18.30
2014,07,01,01,01,18.30
2014,07,01,01,02,18.30
2014,07,01,01,03,18.30
2014,07,01,01,04,18.30
2014,07,01,01,05,18.40
2014,07,01,01,06,18.40
2014,07,01,01,07,18.40
2014,07,01,01,08,18.40
2014,07,01,01,09,18.40
2014,07,01,01,10,18.40
2014,07,01,01,11,18.40
2014,07,01,01,12,18.40
2014,07,01,01,13,18.40
2014,07,01,01,14,18.40
2014,07,01,01,15,18.40
2014,07,01,01,16,18.30
2014,07,01,01,17,18.30
2014,07,01,01,18,18.30
2014,07,01,01,19,18.30
2014,07,01,01,20,18.30
2014,07,01,01,21,18.30
2014,07,01,01,22,18.30
2014,07,01,01,23,18.30
2014,07,01,01,24,18.30
2014,07,01,01,25,18.30
2014,07,01,01,26,18.40
2014,07,01,01,27,18.40
2014,07,01,01,28,18.40
2014,07,01,01,29,18.40
2014,07,01,01,30,18.40
2014,07,01,01,31,18.40
2014,07,01,01,32,18.40
2014,07,01,01,33,18.40
2014,07,01,01,34,18.40
2014,07,01,01,35,18.40
2014,07,01,01,36,18.40
2014,07,01,01,37,18.40
2014,07,01,01,38,18.40
2014,07,01,01,39,18.30
2014,07,01,01,40,18.30
2014,07,01,01,41,18.30
2014,07,01,01,42,18.30
2014,07,01,01,43,18.30
2014,07,01,01,44,18.30
2014,07,01,01,45,18.30
2014,07,01,01,46,18.20
2014,07,01,01,47,18.20
2014,07,01,01,48,18.20
2014,07,01,01,49,18.20
2014,07,01,01,50,18.20
2014,07,01,01,51,18.10
2014,07,01,01,52,18.10
2014,07,01,01,53,18.10
2014,07,01,01,54,18.10
2014,07,01,01,55,18.10
2014,07,01,01,56,18.10
2014,07,01,01,57,18.10
2014,07,01,01,58,18.10
2014,07,01,01,59,18.10
2014,07,01,02,00,18.10
2014,07,01,02,01,18.10
2014,07,01,02,02,18.10
2014,07,01,02,03,18.10
2014,07,01,02,04,18.10
2014,07,01,02,05,18.00
2014,07,01,02,06,18.00
2014,07,01,02,07,17.90
2014,07,01,02,08,17.90
2014,07,01,02,09,17.90
2014,07,01,02,10,17.80
2014,07,01,02,11,17.80
2014,07,01,02,12,17.80
2014,07,01,02,13,17.80
2014,07,01,02,14,17.70
2014,07,01,02,15,17.70
2014,07,01,02,16,17.70
2014,07,01,02,17,17.70
2014,07,01,02,18,17.60
2014,07,01,02,19,17.60
2014,07,01,02,20,17.60
2014,07,01,02,21,17.50
2014,07,01,02,22,17.50
2014,07,01,02,23,17.50
2014,07,01,02,24,17.40
2014,07,01,02,25,17.40
2014,07,01,02,26,17.40
2014,07,01,02,27,17.40
2014,07,01,02,28,17.40
2014,07,01,02,29,17.40
2014,07,01,02,30,17.40
2014,07,01,02,31,17.40
2014,07,01,02,32,17.40
2014,07,01,02,33,17.40
2014,07,01,02,34,17.50
2014,07,01,02,35,17.50
2014,07,01,02,36,17.50
2014,07,01,02,37,17.50
2014,07,01,02,38,17.50
2014,07,01,02,39,17.50
2014,07,01,02,40,17.50
2014,07,01,02,41,17.50
2014,07,01,02,42,17.50
2014,07,01,02,43,17.50
2014,07,01,02,44,17.60
2014,07,01,02,45,17.60
2014,07,01,02,46,17.60
2014,07,01,02,47,17.60
2014,07,01,02,48,17.60
2014,07,01,02,49,17.60
2014,07,01,02,50,17.60
2014,07,01,02,51,17.60
2014,07,01,02,52,17.60
2014,07,01,02,53,17.60
2014,07,01,02,54,17.60
2014,07,01,02,55,17.60
2014,07,01,02,56,17.60
2014,07,01,02,57,17.60
2014,07,01,02,58,17.60
2014,07,01,02,59,17.60
2014,07,01,03,00,17.60
2014,07,01,03,01,17.60
2014,07,01,03,02,17.60
2014,07,01,03,03,17.50
2014,07,01,03,04,17.50
2014,07,01,03,05,17.50
2014,07,01,03,06,17.50
2014,07,01,03,07,17.50
2014,07,01,03,08,17.50
2014,07,01,03,09,17.50
2014,07,01,03,10,17.50
2014,07,01,03,11,17.50
2014,07,01,03,12,17.50
2014,07,01,03,13,17.50
2014,07,01,03,14,17.40
2014,07,01,03,15,17.40
2014,07,01,03,16,17.40
2014,07,01,03,17,17.40
2014,07,01,03,18,17.30
2014,07,01,03,19,17.30
2014,07,01,03,20,17.30
2014,07,01,03,21,17.30
2014,07,01,03,22,17.20
2014,07,01,03,23,17.20
2014,07,01,03,24,17.10
2014,07,01,03,25,17.10
2014,07,01,03,26,17.10
2014,07,01,03,27,17.00
2014,07,01,03,28,17.00
2014,07,01,03,29,17.00
2014,07,01,03,30,17.00
2014,07,01,03,31,16.90
2014,07,01,03,32,16.90
2014,07,01,03,33,16.90
2014,07,01,03,34,16.90
2014,07,01,03,35,16.90
2014,07,01,03,36,16.90
2014,07,01,03,37,16.90
2014,07,01,03,38,16.90
2014,07,01,03,39,17.00
2014,07,01,03,40,17.00
2014,07,01,03,41,17.00
2014,07,01,03,42,17.00
2014,07,01,03,43,17.10
2014,07,01,03,44,17.10
2014,07,01,03,45,17.10
2014,07,01,03,46,17.20
2014,07,01,03,47,17.20
2014,07,01,03,48,17.20
2014,07,01,03,49,17.30
2014,07,01,03,50,17.30
2014,07,01,03,51,17.30
2014,07,01,03,52,17.30
2014,07,01,03,53,17.40
2014,07,01,03,54,17.40
2014,07,01,03,55,17.40
2014,07,01,03,56,17.50
2014,07,01,03,57,17.50
2014,07,01,03,58,17.50
2014,07,01,03,59,17.50
2014,07,01,04,00,17.50
2014,07,01,04,01,17.50
2014,07,01,04,02,17.50
2014,07,01,04,03,17.50
2014,07,01,04,04,17.50
2014,07,01,04,05,17.40
2014,07,01,04,06,17.40
2014,07,01,04,07,17.40
2014,07,01,04,08,17.30
2014,07,01,04,09,17.30
2014,07,01,04,10,17.30
2014,07,01,04,11,17.30
2014,07,01,04,12,17.20
2014,07,01,04,13,17.20
2014,07,01,04,14,17.20
2014,07,01,04,15,17.10
2014,07,01,04,16,17.10
2014,07,01,04,17,17.00
2014,07,01,04,18,17.00
2014,07,01,04,19,17.00
2014,07,01,04,20,16.90
2014,07,01,04,21,16.90
2014,07,01,04,22,16.90
2014,07,01,04,23,16.90
2014,07,01,04,24,16.80
2014,07,01,04,25,16.80
2014,07,01,04,26,16.80
2014,07,01,04,27,16.70
2014,07,01,04,28,16.70
2014,07,01,04,29,16.70
2014,07,01,04,30,16.70
2014,07,01,04,31,16.70
2014,07,01,04,32,16.70
2014,07,01,04,33,16.70
2014,07,01,04,34,16.70
2014,07,01,04,35,16.70
2014,07,01,04,36,16.70
2014,07,01,04,37,16.80
2014,07,01,04,38,16.80
2014,07,01,04,39,16.80
2014,07,01,04,40,16.80
2014,07,01,04,41,16.80
2014,07,01,04,42,16.80
2014,07,01,04,43,16.80
2014,07,01,04,44,16.80
2014,07,01,04,45,16.80
2014,07,01,04,46,16.80
2014,07,01,04,47,16.80
2014,07,01,04,48,16.90
2014,07,01,04,49,16.90
2014,07,01,04,50,16.90
2014,07,01,04,51,16.90
2014,07,01,04,52,17.00
2014,07,01,04,53,17.00
2014,07,01,04,54,17.10
2014,07,01,04,55,17.10
2014,07,01,04,56,17.10
2014,07,01,04,57,17.10
2014,07,01,04,58,17.10
2014,07,01,04,59,17.10
2014,07,01,05,00,17.10
2014,07,01,05,01,17.20
2014,07,01,05,02,17.20
2014,07,01,05,03,17.20
2014,07,01,05,04,17.20
2014,07,01,05,05,17.20
2014,07,01,05,06,17.20
2014,07,01,05,07,17.10
2014,07,01,05,08,17.10
2014,07,01,05,09,17.10
2014,07,01,05,10,17.10
2014,07,01,05,11,17.10
2014,07,01,05,12,17.10
2014,07,01,05,13,17.10
2014,07,01,05,14,17.10
2014,07,01,05,15,17.10
2014,07,01,05,16,17.10
2014,07,01,05,17,17.10
2014,07,01,05,18,17.10
2014,07,01,05,19,17.10
2014,07,01,05,20,17.10
2014,07,01,05,21,17.20
2014,07,01,05,22,17.20
2014,07,01,05,23,17.20
2014,07,01,05,24,17.20
2014,07,01,05,25,17.20
2014,07,01,05,26,17.20
2014,07,01,05,27,17.20
2014,07,01,05,28,17.20
2014,07,01,05,29,17.20
2014,07,01,05,30,17.20
2014,07,01,05,31,17.20
2014,07,01,05,32,17.10
2014,07,01,05,33,17.10
2014,07,01,05,34,17.10
2014,07,01,05,35,17.00
2014,07,01,05,36,16.90
2014,07,01,05,37,16.90
2014,07,01,05,38,16.90
2014,07,01,05,39,16.80
2014,07,01,05,40,16.80
2014,07,01,05,41,16.80
2014,07,01,05,42,16.80
2014,07,01,05,43,16.80
2014,07,01,05,44,16.80
2014,07,01,05,45,16.80
2014,07,01,05,46,16.80
2014,07,01,05,47,16.80
2014,07,01,05,48,16.80
2014,07,01,05,49,16.80
2014,07,01,05,50,16.80
2014,07,01,05,51,16.80
2014,07,01,05,52,16.80
2014,07,01,05,53,16.80
2014,07,01,05,54,16.90
2014,07,01,05,55,16.90
2014,07,01,05,56,16.90
2014,07,01,05,57,16.90
2014,07,01,05,58,16.90
2014,07,01,05,59,16.90
2014,07,01,06,00,16.90
2014,07,01,06,01,16.90
2014,07,01,06,02,17.00
2014,07,01,06,03,17.00
2014,07,01,06,04,17.10
2014,07,01,06,05,17.10
2014,07,01,06,06,17.10
2014,07,01,06,07,17.20
2014,07,01,06,08,17.20
2014,07,01,06,09,17.20
2014,07,01,06,10,17.20
2014,07,01,06,11,17.20
2014,07,01,06,12,17.20
2014,07,01,06,13,17.20
2014,07,01,06,14,17.20
2014,07,01,06,15,17.20
2014,07,01,06,16,17.30
2014,07,01,06,17,17.30
2014,07,01,06,18,17.30
2014,07,01,06,19,17.30
2014,07,01,06,20,17.30
2014,07,01,06,21,17.30
2014,07,01,06,22,17.30
2014,07,01,06,23,17.30
2014,07,01,06,24,17.20
2014,07,01,06,25,17.20
2014,07,01,06,26,17.20
2014,07,01,06,27,17.20
2014,07,01,06,28,17.20
2014,07,01,06,29,17.20
2014,07,01,06,30,17.20
2014,07,01,06,31,17.10
2014,07,01,06,32,17.10
2014,07,01,06,33,17.10
2014,07,01,06,34,17.10
2014,07,01,06,35,17.10
2014,07,01,06,36,17.10
2014,07,01,06,37,17.10
2014,07,01,06,38,17.10
2014,07,01,06,39,17.10
2014,07,01,06,40,17.10
2014,07,01,06,41,17.10
2014,07,01,06,42,17.10
2014,07,01,06,43,17.10
2014,07,01,06,44,17.10
2014,07,01,06,45,17.20
2014,07,01,06,46,17.20
2014,07,01,06,47,17.20
2014,07,01,06,48,17.20
2014,07,01,06,49,17.20
2014,07,01,06,50,17.20
2014,07,01,06,51,17.20
2014,07,01,06,52,17.30
2014,07,01,06,53,17.30
2014,07,01,06,54,17.30
2014,07,01,06,55,17.30
2014,07,01,06,56,17.30
2014,07,01,06,57,17.20
2014,07,01,06,58,17.20
2014,07,01,06,59,17.20
2014,07,01,07,00,17.20
2014,07,01,07,01,17.20
2014,07,01,07,02,17.20
2014,07,01,07,03,17.20
2014,07,01,07,04,17.20
2014,07,01,07,05,17.20
2014,07,01,07,06,17.20
2014,07,01,07,07,17.20
2014,07,01,07,08,17.20
2014,07,01,07,09,17.30
2014,07,01,07,10,17.30
2014,07,01,07,11,17.30
2014,07,01,07,12,17.30
2014,07,01,07,13,17.40
2014,07,01,07,14,17.40
2014,07,01,07,15,17.40
2014,07,01,07,16,17.40
2014,07,01,07,17,17.50
2014,07,01,07,18,17.50
2014,07,01,07,19,17.60
2014,07,01,07,20,17.60
2014,07,01,07,21,17.70
2014,07,01,07,22,17.70
2014,07,01,07,23,17.70
2014,07,01,07,24,17.80
2014,07,01,07,25,17.80
2014,07,01,07,26,17.80
2014,07,01,07,27,17.80
2014,07,01,07,28,17.80
2014,07,01,07,29,17.90
2014,07,01,07,30,17.90
2014,07,01,07,31,17.90
2014,07,01,07,32,18.00
2014,07,01,07,33,18.00
2014,07,01,07,34,18.00
2014,07,01,07,35,18.10
2014,07,01,07,36,18.10
2014,07,01,07,37,18.10
2014,07,01,07,38,18.10
2014,07,01,07,39,18.10
2014,07,01,07,40,18.10
2014,07,01,07,41,18.10
2014,07,01,07,42,18.10
2014,07,01,07,43,18.00
2014,07,01,07,44,18.00
2014,07,01,07,45,18.00
2014,07,01,07,46,18.10
2014,07,01,07,47,18.10
2014,07,01,07,48,18.10
2014,07,01,07,49,18.10
2014,07,01,07,50,18.10
2014,07,01,07,51,18.10
2014,07,01,07,52,18.10
2014,07,01,07,53,18.10
2014,07,01,07,54,18.20
2014,07,01,07,55,18.20
2014,07,01,07,56,18.20
2014,07,01,07,57,18.20
2014,07,01,07,58,18.20
2014,07,01,07,59,18.30
2014,07,01,08,00,18.30
2014,07,01,08,01,18.30
2014,07,01,08,02,18.30
2014,07,01,08,03,18.40
2014,07,01,08,04,18.50
2014,07,01,08,05,18.50
2014,07,01,08,06,18.50
2014,07,01,08,07,18.50
2014,07,01,08,08,18.60
2014,07,01,08,09,18.60
2014,07,01,08,10,18.60
2014,07,01,08,11,18.70
2014,07,01,08,12,18.70
2014,07,01,08,13,18.80
2014,07,01,08,14,18.80
2014,07,01,08,15,18.80
2014,07,01,08,16,18.90
2014,07,01,08,17,18.90
2014,07,01,08,18,18.90
2014,07,01,08,19,19.00
2014,07,01,08,20,19.00
2014,07,01,08,21,19.10
2014,07,01,08,22,19.10
2014,07,01,08,23,19.20
2014,07,01,08,24,19.20
2014,07,01,08,25,19.30
2014,07,01,08,26,19.30
2014,07,01,08,27,19.30
2014,07,01,08,28,19.30
2014,07,01,08,29,19.30
2014,07,01,08,30,19.40
2014,07,01,08,31,19.40
2014,07,01,08,32,19.40
2014,07,01,08,33,19.50
2014,07,01,08,34,19.50
2014,07,01,08,35,19.60
2014,07,01,08,36,19.60
2014,07,01,08,37,19.60
2014,07,01,08,38,19.60
2014,07,01,08,39,19.60
2014,07,01,08,40,19.60
2014,07,01,08,41,19.70
2014,07,01,08,42,19.70
2014,07,01,08,43,19.70
2014,07,01,08,44,19.80
2014,07,01,08,45,19.80
2014,07,01,08,46,19.80
2014,07,01,08,47,19.80
2014,07,01,08,48,19.90
2014,07,01,08,49,19.90
2014,07,01,08,50,19.90
2014,07,01,08,51,20.00
2014,07,01,08,52,20.10
2014,07,01,08,53,20.10
2014,07,01,08,54,20.20
2014,07,01,08,55,20.20
2014,07,01,08,56,20.20
2014,07,01,08,57,20.30
2014,07,01,08,58,20.30
2014,07,01,08,59,20.30
2014,07,01,09,00,20.30
2014,07,01,09,01,20.40
2014,07,01,09,02,20.40
2014,07,01,09,03,20.40
2014,07,01,09,04,20.40
2014,07,01,09,05,20.40
2014,07,01,09,06,20.50
2014,07,01,09,07,20.50
2014,07,01,09,08,20.60
2014,07,01,09,09,20.60
2014,07,01,09,10,20.60
2014,07,01,09,11,20.60
2014,07,01,09,12,20.70
2014,07,01,09,13,20.70
2014,07,01,09,14,20.80
2014,07,01,09,15,20.90
2014,07,01,09,16,20.90
2014,07,01,09,17,20.90
2014,07,01,09,18,20.90
2014,07,01,09,19,20.90
2014,07,01,09,20,20.90
2014,07,01,09,21,20.90
2014,07,01,09,22,20.90
2014,07,01,09,23,21.00
2014,07,01,09,24,21.00
2014,07,01,09,25,21.00
2014,07,01,09,26,21.00
2014,07,01,09,27,21.10
2014,07,01,09,28,21.20
2014,07,01,09,29,21.30
2014,07,01,09,30,21.30
2014,07,01,09,31,21.30
2014,07,01,09,32,21.30
2014,07,01,09,33,21.40
2014,07,01,09,34,21.40
2014,07,01,09,35,21.50
2014,07,01,09,36,21.50
2014,07,01,09,37,21.60
2014,07,01,09,38,21.60
2014,07,01,09,39,21.60
2014,07,01,09,40,21.70
2014,07,01,09,41,21.70
2014,07,01,09,42,21.80
2014,07,01,09,43,21.80
2014,07,01,09,44,21.80
2014,07,01,09,45,21.90
2014,07,01,09,46,21.90
2014,07,01,09,47,21.90
2014,07,01,09,48,22.00
2014,07,01,09,49,22.00
2014,07,01,09,50,22.10
2014,07,01,09,51,22.10
2014,07,01,09,52,22.10
2014,07,01,09,53,22.10
2014,07,01,09,54,22.10
2014,07,01,09,55,22.10
2014,07,01,09,56,22.20
2014,07,01,09,57,22.20
2014,07,01,09,58,22.20
2014,07,01,09,59,22.30
2014,07,01,10,00,22.30
2014,07,01,10,01,22.30
2014,07,01,10,02,22.30
2014,07,01,10,03,22.30
2014,07,01,10,04,22.40
2014,07,01,10,05,22.40
2014,07,01,10,06,22.40
2014,07,01,10,07,22.50
2014,07,01,10,08,22.50
2014,07,01,10,09,22.50
2014,07,01,10,10,22.50
2014,07,01,10,11,22.50
2014,07,01,10,12,22.60
2014,07,01,10,13,22.50
2014,07,01,10,14,22.50
2014,07,01,10,15,22.50
2014,07,01,10,16,22.60
2014,07,01,10,17,22.60
2014,07,01,10,18,22.60
2014,07,01,10,19,22.60
2014,07,01,10,20,22.60
2014,07,01,10,21,22.60
2014,07,01,10,22,22.50
2014,07,01,10,23,22.50
2014,07,01,10,24,22.50
2014,07,01,10,25,22.40
2014,07,01,10,26,22.40
2014,07,01,10,27,22.50
2014,07,01,10,28,22.50
2014,07,01,10,29,22.60
2014,07,01,10,30,22.60
2014,07,01,10,31,22.60
2014,07,01,10,32,22.70
2014,07,01,10,33,22.80
2014,07,01,10,34,22.80
2014,07,01,10,35,22.80
2014,07,01,10,36,22.80
2014,07,01,10,37,22.80
2014,07,01,10,38,22.90
2014,07,01,10,39,22.90
2014,07,01,10,40,22.90
2014,07,01,10,41,23.00
2014,07,01,10,42,23.00
2014,07,01,10,43,23.10
2014,07,01,10,44,23.10
2014,07,01,10,45,23.10
2014,07,01,10,46,23.10
2014,07,01,10,47,23.10
2014,07,01,10,48,23.10
2014,07,01,10,49,23.10
2014,07,01,10,50,23.10
2014,07,01,10,51,23.20
2014,07,01,10,52,23.20
2014,07,01,10,53,23.20
2014,07,01,10,54,23.10
2014,07,01,10,55,23.20
2014,07,01,10,56,23.20
2014,07,01,10,57,23.20
2014,07,01,10,58,23.30
2014,07,01,10,59,23.30
2014,07,01,11,00,23.40
2014,07,01,11,01,23.40
2014,07,01,11,02,23.50
2014,07,01,11,03,23.50
2014,07,01,11,04,23.60
2014,07,01,11,05,23.60
2014,07,01,11,06,23.60
2014,07,01,11,07,23.70
2014,07,01,11,08,23.80
2014,07,01,11,09,23.80
2014,07,01,11,10,23.90
2014,07,01,11,11,23.90
2014,07,01,11,12,23.90
2014,07,01,11,13,24.00
2014,07,01,11,14,24.00
2014,07,01,11,15,23.90
2014,07,01,11,16,23.80
2014,07,01,11,17,23.80
2014,07,01,11,18,23.80
2014,07,01,11,19,23.80
2014,07,01,11,20,23.80
2014,07,01,11,21,23.80
2014,07,01,11,22,23.90
2014,07,01,11,23,24.00
2014,07,01,11,24,24.00
2014,07,01,11,25,24.10
2014,07,01,11,26,24.10
2014,07,01,11,27,24.20
2014,07,01,11,28,24.30
2014,07,01,11,29,24.30
2014,07,01,11,30,24.30
2014,07,01,11,31,24.30
2014,07,01,11,32,24.30
2014,07,01,11,33,24.30
2014,07,01,11,34,24.40
2014,07,01,11,35,24.40
2014,07,01,11,36,24.50
2014,07,01,11,37,24.50
2014,07,01,11,38,24.60
2014,07,01,11,39,24.60
2014,07,01,11,40,24.60
2014,07,01,11,41,24.60
2014,07,01,11,42,24.60
2014,07,01,11,43,24.60
2014,07,01,11,44,24.60
2014,07,01,11,45,24.60
2014,07,01,11,46,24.60
2014,07,01,11,47,24.60
2014,07,01,11,48,24.60
2014,07,01,11,49,24.50
2014,07,01,11,50,24.60
2014,07,01,11,51,24.60
2014,07,01,11,52,24.60
2014,07,01,11,53,24.60
2014,07,01,11,54,24.60
2014,07,01,11,55,24.60
2014,07,01,11,56,24.60
2014,07,01,11,57,24.60
2014,07,01,11,58,24.70
2014,07,01,11,59,24.70
2014,07,01,12,00,24.70
2014,07,01,12,01,24.70
2014,07,01,12,02,24.70
2014,07,01,12,03,24.80
2014,07,01,12,04,24.80
2014,07,01,12,05,24.90
2014,07,01,12,06,24.90
2014,07,01,12,07,24.90
2014,07,01,12,08,24.90
2014,07,01,12,09,24.90
2014,07,01,12,10,24.90
2014,07,01,12,11,24.90
2014,07,01,12,12,25.00
2014,07,01,12,13,25.10
2014,07,01,12,14,25.20
2014,07,01,12,15,25.30
2014,07,01,12,16,25.40
2014,07,01,12,17,25.50
2014,07,01,12,18,25.60
2014,07,01,12,19,25.70
2014,07,01,12,20,25.80
2014,07,01,12,21,25.90
2014,07,01,12,22,25.90
2014,07,01,12,23,25.90
2014,07,01,12,24,25.90
2014,07,01,12,25,25.90
2014,07,01,12,26,25.90
2014,07,01,12,27,25.80
2014,07,01,12,28,25.80
2014,07,01,12,29,25.80
2014,07,01,12,30,25.70
2014,07,01,12,31,25.60
2014,07,01,12,32,25.60
2014,07,01,12,33,25.60
2014,07,01,12,34,25.50
2014,07,01,12,35,25.50
2014,07,01,12,36,25.40
2014,07,01,12,37,25.50
2014,07,01,12,38,25.50
2014,07,01,12,39,25.40
2014,07,01,12,40,25.40
2014,07,01,12,41,25.40
2014,07,01,12,42,25.40
2014,07,01,12,43,25.50
2014,07,01,12,44,25.60
2014,07,01,12,45,25.60
2014,07,01,12,46,25.70
2014,07,01,12,47,25.70
2014,07,01,12,48,25.70
2014,07,01,12,49,25.80
2014,07,01,12,50,25.80
2014,07,01,12,51,25.90
2014,07,01,12,52,25.90
2014,07,01,12,53,25.90
2014,07,01,12,54,25.90
2014,07,01,12,55,25.90
2014,07,01,12,56,26.00
2014,07,01,12,57,26.00
2014,07,01,12,58,26.10
2014,07,01,12,59,26.10
2014,07,01,13,00,26.10
2014,07,01,13,01,26.10
2014,07,01,13,02,26.10
2014,07,01,13,03,26.00
2014,07,01,13,04,26.00
2014,07,01,13,05,26.00
2014,07,01,13,06,25.90
2014,07,01,13,07,25.90
2014,07,01,13,08,25.80
2014,07,01,13,09,25.80
2014,07,01,13,10,25.80
2014,07,01,13,11,25.80
2014,07,01,13,12,25.90
2014,07,01,13,13,25.90
2014,07,01,13,14,25.90
2014,07,01,13,15,25.90
2014,07,01,13,16,25.90
2014,07,01,13,17,26.00
2014,07,01,13,18,26.00
2014,07,01,13,19,26.00
2014,07,01,13,20,26.00
2014,07,01,13,21,25.90
2014,07,01,13,22,25.90
2014,07,01,13,23,26.00
2014,07,01,13,24,26.00
2014,07,01,13,25,26.00
2014,07,01,13,26,26.00
2014,07,01,13,27,25.90
2014,07,01,13,28,25.90
2014,07,01,13,29,25.90
2014,07,01,13,30,26.00
2014,07,01,13,31,26.00
2014,07,01,13,32,26.00
2014,07,01,13,33,25.90
2014,07,01,13,34,25.80
2014,07,01,13,35,25.80
2014,07,01,13,36,25.70
2014,07,01,13,37,25.60
2014,07,01,13,38,25.50
2014,07,01,13,39,25.40
2014,07,01,13,40,25.30
2014,07,01,13,41,25.20
2014,07,01,13,42,25.20
2014,07,01,13,43,25.10
2014,07,01,13,44,25.00
2014,07,01,13,45,24.90
2014,07,01,13,46,24.90
2014,07,01,13,47,24.80
2014,07,01,13,48,24.80
2014,07,01,13,49,24.70
2014,07,01,13,50,24.80
2014,07,01,13,51,24.80
2014,07,01,13,52,24.80
2014,07,01,13,53,24.90
2014,07,01,13,54,25.00
2014,07,01,13,55,25.10
2014,07,01,13,56,25.20
2014,07,01,13,57,25.40
2014,07,01,13,58,25.50
2014,07,01,13,59,25.50
2014,07,01,14,00,25.60
2014,07,01,14,01,25.70
2014,07,01,14,02,25.70
2014,07,01,14,03,25.70
2014,07,01,14,04,25.70
2014,07,01,14,05,25.70
2014,07,01,14,06,25.80
2014,07,01,14,07,25.90
2014,07,01,14,08,25.90
2014,07,01,14,09,26.00
2014,07,01,14,10,26.10
2014,07,01,14,11,26.10
2014,07,01,14,12,26.20
2014,07,01,14,13,26.30
2014,07,01,14,14,26.30
2014,07,01,14,15,26.40
2014,07,01,14,16,26.40
2014,07,01,14,17,26.40
2014,07,01,14,18,26.40
2014,07,01,14,19,26.40
2014,07,01,14,20,26.40
2014,07,01,14,21,26.50
2014,07,01,14,22,26.60
2014,07,01,14,23,26.60
2014,07,01,14,24,26.60
2014,07,01,14,25,26.60
2014,07,01,14,26,26.60
2014,07,01,14,27,26.70
2014,07,01,14,28,26.70
2014,07,01,14,29,26.80
2014,07,01,14,30,26.90
2014,07,01,14,31,27.00
2014,07,01,14,32,27.00
2014,07,01,14,33,27.10
2014,07,01,14,34,27.20
2014,07,01,14,35,27.30
2014,07,01,14,36,27.40
2014,07,01,14,37,27.50
2014,07,01,14,38,27.60
2014,07,01,14,39,27.70
2014,07,01,14,40,27.80
2014,07,01,14,41,27.80
2014,07,01,14,42,27.80
2014,07,01,14,43,27.80
2014,07,01,14,44,27.80
2014,07,01,14,45,27.80
2014,07,01,14,46,27.60
2014,07,01,14,47,27.50
2014,07,01,14,48,27.40
2014,07,01,14,49,27.30
2014,07,01,14,50,27.20
2014,07,01,14,51,27.10
2014,07,01,14,52,27.00
2014,07,01,14,53,26.90
2014,07,01,14,54,26.80
2014,07,01,14,55,26.80
2014,07,01,14,56,26.80
2014,07,01,14,57,26.90
2014,07,01,14,58,26.90
2014,07,01,14,59,27.00
2014,07,01,15,00,27.10
2014,07,01,15,01,27.10
2014,07,01,15,02,27.20
2014,07,01,15,03,27.30
2014,07,01,15,04,27.40
2014,07,01,15,05,27.50
2014,07,01,15,06,27.60
2014,07,01,15,07,27.70
2014,07,01,15,08,27.80
2014,07,01,15,09,27.80
2014,07,01,15,10,27.90
2014,07,01,15,11,28.00
2014,07,01,15,12,28.00
2014,07,01,15,13,28.00
2014,07,01,15,14,28.00
2014,07,01,15,15,28.10
2014,07,01,15,16,28.10
2014,07,01,15,17,28.10
2014,07,01,15,18,28.20
2014,07,01,15,19,28.20
2014,07,01,15,20,28.40
2014,07,01,15,21,28.40
2014,07,01,15,22,28.50
2014,07,01,15,23,28.50
2014,07,01,15,24,28.50
2014,07,01,15,25,28.50
2014,07,01,15,26,28.50
2014,07,01,15,27,28.50
2014,07,01,15,28,28.50
2014,07,01,15,29,28.40
2014,07,01,15,30,28.50
2014,07,01,15,31,28.50
2014,07,01,15,32,28.50
2014,07,01,15,33,28.50
2014,07,01,15,34,28.50
2014,07,01,15,35,28.40
2014,07,01,15,36,28.30
2014,07,01,15,37,28.30
2014,07,01,15,38,28.20
2014,07,01,15,39,28.10
2014,07,01,15,40,28.00
2014,07,01,15,41,27.90
2014,07,01,15,42,27.80
2014,07,01,15,43,27.70
2014,07,01,15,44,27.60
2014,07,01,15,45,27.60
2014,07,01,15,46,27.50
2014,07,01,15,47,27.40
2014,07,01,15,48,27.30
2014,07,01,15,49,27.30
2014,07,01,15,50,27.20
2014,07,01,15,51,27.20
2014,07,01,15,52,27.10
2014,07,01,15,53,27.10
2014,07,01,15,54,27.10
2014,07,01,15,55,27.10
2014,07,01,15,56,27.10
2014,07,01,15,57,27.20
2014,07,01,15,58,27.20
2014,07,01,15,59,27.20
2014,07,01,16,00,27.30
2014,07,01,16,01,27.40
2014,07,01,16,02,27.50
2014,07,01,16,03,27.60
2014,07,01,16,04,27.70
2014,07,01,16,05,27.90
2014,07,01,16,06,28.00
2014,07,01,16,07,28.30
2014,07,01,16,08,28.40
2014,07,01,16,09,28.50
2014,07,01,16,10,28.60
2014,07,01,16,11,28.60
2014,07,01,16,12,28.50
2014,07,01,16,13,28.50
2014,07,01,16,14,28.40
2014,07,01,16,15,28.30
2014,07,01,16,16,28.20
2014,07,01,16,17,28.10
2014,07,01,16,18,28.00
2014,07,01,16,19,27.90
2014,07,01,16,20,27.80
2014,07,01,16,21,27.70
2014,07,01,16,22,27.70
2014,07,01,16,23,27.60
2014,07,01,16,24,27.50
2014,07,01,16,25,27.40
2014,07,01,16,26,27.30
2014,07,01,16,27,27.20
2014,07,01,16,28,27.20
2014,07,01,16,29,27.10
2014,07,01,16,30,27.00
2014,07,01,16,31,27.00
2014,07,01,16,32,26.90
2014,07,01,16,33,26.90
2014,07,01,16,34,26.80
2014,07,01,16,35,26.80
2014,07,01,16,36,26.70
2014,07,01,16,37,26.70
2014,07,01,16,38,26.60
2014,07,01,16,39,26.60
2014,07,01,16,40,26.50
2014,07,01,16,41,26.40
2014,07,01,16,42,26.40
2014,07,01,16,43,26.40
2014,07,01,16,44,26.30
2014,07,01,16,45,26.30
2014,07,01,16,46,26.30
2014,07,01,16,47,26.30
2014,07,01,16,48,26.30
2014,07,01,16,49,26.20
2014,07,01,16,50,26.20
2014,07,01,16,51,26.20
2014,07,01,16,52,26.10
2014,07,01,16,53,26.10
2014,07,01,16,54,26.10
2014,07,01,16,55,26.10
2014,07,01,16,56,26.10
2014,07,01,16,57,26.10
2014,07,01,16,58,26.10
2014,07,01,16,59,26.10
2014,07,01,17,00,26.20
2014,07,01,17,01,26.30
2014,07,01,17,02,26.30
2014,07,01,17,03,26.30
2014,07,01,17,04,26.30
2014,07,01,17,05,26.40
2014,07,01,17,06,26.30
2014,07,01,17,07,26.30
2014,07,01,17,08,26.30
2014,07,01,17,09,26.30
2014,07,01,17,10,26.30
2014,07,01,17,11,26.20
2014,07,01,17,12,26.20
2014,07,01,17,13,26.10
2014,07,01,17,14,26.10
2014,07,01,17,15,26.00
2014,07,01,17,16,25.90
2014,07,01,17,17,25.90
2014,07,01,17,18,25.90
2014,07,01,17,19,25.80